STARLINK-2012 (47635 NORAD) Tracking and Keplerian Element Data

This shows tracking and keplerian element data for the satellite.

Feedback or suggestion? Click here.




ElementValue
Catalog47635
NameSTARLINK-2012
Epoch Orbit177
Epoch Day101.91668981
Epoch Year2021
RAAN188.9182
Inclination53.0475
Eccentricity0.0002146
Argument of Perigee22.5666
Mean Anonmoly53.9474
Mean Motion15.73241645
Decay Rate-0.00013667
L11 47635U 21012R 21101.91668981 -.00013667 00000-0 -92908-4 0 9991
L22 47635 53.0475 188.9182 0002146 22.5666 53.9474 15.73241645 1773

Live tracking and technical data element details for STARLINK-2012 (NORAD 47635). STARLINK-2012 can be tracked NOW for your location showing map with azimuth and elevation plus other details from your city location.

Track the satellite on the map from your city or location and see movement details for azimuth, elevation, latitude, longitude, range, height, and movement on the map or in text.







IsCatalogInMostPopularTable: catalog: 47635, numindb: 14
Update: records affected: 1



GetName: 47635 STARLINK-2012

Hit Count: updated at: Tue, 13 Apr 2021 04:16:50 GMT